Regional Weather Roundup
Issued by NWS Green Bay, WI

Home | Current Version | Previous Version | Text Only | Print | Product List | Glossary On
Versions: 1 2 3 4 5 6 7 8 9 10 11 12 13 14 15 16 17 18 19 20 21 22 23 24 25 26 27 28 29 30 31 32 33 34 35 36 37 38 39 40 41 42 43 44 45 46 47 48 49 50
000
ASUS43 KGRB 310311
RWRGRB

NORTH-CENTRAL AND NORTHEAST WISCONSIN REGIONAL WEATHER ROUNDUP
NATIONAL WEATHER SERVICE GREEN BAY WI
1000 PM CDT SAT JUL 30 2016

WIZ005-009-010>012-018-019-310400-
NORTH CENTRAL WISCONSIN

CITY           SKY/WX    TMP DP  RH WIND       PRES   REMARKS
IRONWOOD       CLEAR     64  59  82 E3        30.03R
MANITOWISH WTR CLEAR     64  58  81 SE6       30.07R
ARBOR VITAE    CLEAR     65  57  75 SE5       30.08S
EAGLE RIVER    CLEAR     63  52  68 SE3       30.09R
LAND O LAKES   CLEAR     58  55  91 SE3       30.10R
RHINELANDER    CLEAR     64  54  69 SE5       30.10R
PHILLIPS       CLEAR     64  59  83 CALM      30.05R
ANTIGO         CLEAR     57  55  93 CALM      30.09R
TOMAHAWK       CLEAR     62  56  83 SE3       30.08R
MERRILL        CLEAR     60  58  94 CALM      30.09R
$$

WIZ013-073-310400-
NORTHEAST WISCONSIN

CITY           SKY/WX    TMP DP  RH WIND       PRES   REMARKS
IRON MOUNTAIN  CLEAR     59  50  72 CALM      30.07R
MARINETTE      CLEAR    N/A N/A N/A N3        30.06R
OCONTO         CLEAR    N/A N/A N/A CALM      30.05R
$$

WIZ017-030-035>037-045-310400-
CENTRAL WISCONSIN

CITY           SKY/WX    TMP DP  RH WIND       PRES   REMARKS
MEDFORD        CLEAR     64  58  81 SE6       30.06R
WAUSAU         CLEAR     64  55  72 E5        30.06R
MOSINEE        CLEAR     63  55  77 E5        30.08R
MARSHFIELD     CLOUDY    68  57  68 E6        30.06R
WISC RAPIDS    PTCLDY    66  54  65 E6        30.07R
STEVENS POINT  CLEAR     60  56  85 CALM      30.07R
WAUPACA        CLEAR     63  61  93 CALM      30.06R
SHAWANO        CLEAR     63  56  80 CALM      30.07R
CLINTONVILLE   CLEAR     61  54  77 CALM      30.06R
WAUTOMA        CLEAR     64  59  83 CALM      30.06R
$$

WIZ038-039-048-051-310400-
FOX VALLEY

CITY           SKY/WX    TMP DP  RH WIND       PRES   REMARKS
NWS GREEN BAY  CLEAR     61  60  97 W3        30.05R
APPLETON       PTCLDY    64  52  63 VRB3      30.05R
OSHKOSH        CLEAR     69  55  60 E6        30.05R
FOND DU LAC    CLEAR     64  57  78 CALM      30.05R
$$

WIZ022-050-052-310400-
EAST CENTRAL WISCONSIN

CITY           SKY/WX    TMP DP  RH WIND       PRES   REMARKS
EPHRAIM        FAIR      64  58  78 NE3       30.05R
WASHINGTON ISL NOT AVBL
STURGEON BAY   CLEAR     67  57  70 NE5       30.06R
MANITOWOC      CLEAR     64  58  80 MISG      30.04S
SHEBOYGAN      CLEAR     62  58  86 N5        30.04R
$$

LMZ563-521-522-541>543-310400-
LAKESHORE

STATION/POSITION TIME  TEMP    WIND        PRES    VSBY  WAVE
                       AIR SEA DIR/SP/G                  HT/PER
                 (UTC) (F)     (DEG/KT/KT) (MB)    (MI)  (FT/S)
SHEBOYGAN LKSHOR 0300   67     360/  8/  9 1017.2R
KEWAUNEE LKSHORE 0200           20/  2/  4 1016.6S
ALGOMA MARINA    0243           30/  4/  5   N/A
NORTHPORT PIER   0200   71      30/  3/  5 1016.9S
N MID LAKE BUOY  0250   71 70   80/ 10/ 12 1016.8R         1/ 3
S GREEN BAY BUOY 0200   71 71   70/  8/ 10 1016.7R
SISTER BAY LKSHO 0221   66        CALM       N/A
CHAMBERS ISLAND  0200   72      40/  6/  8 1017.3R
MENOMINEE LKSHOR 0200           40/ 10/ 10 1016.4R
$$




USA.gov is the U.S. government's official web portal to all federal, state and local government web resources and services.